EZS27BL LFSB-LICJ

Flight info

Callsign EZS27BL
Flight time 1h 44m
Altitude 37000
Route ELBEG Y715 AMRUP N491 TRA DCT RIPUS DCT GERSA Z50 RESIA DCT ATPED DCT ELTAR DCT TIPNI DCT AMTEL DCT KONUT DCT RONAB DCT GIANO
Aircraft A320/M-SDE3FGHIRWY/LB1

Departure

Time 2026-05-05 12:08
Airport EuroAirport Basel–Mulhouse–Freiburg (LFSB)

Arrival

Time 2026-05-05 13:53
Airport Falcone–Borsellino Airport (LICJ)
Time Latitude Longitude Altitude Speed Heading
2026-05-05 11:38 47.59860 7.53037 890 ft 0 kts
2026-05-05 11:58 47.59838 7.53036 890 ft 4 kts
2026-05-05 11:58 47.59817 7.53034 890 ft 4 kts
2026-05-05 11:59 47.59790 7.53032 890 ft 4 kts
2026-05-05 11:59 47.59763 7.53030 890 ft 4 kts
2026-05-05 11:59 47.59736 7.53027 890 ft 4 kts
2026-05-05 11:59 47.59709 7.53024 890 ft 4 kts
2026-05-05 12:00 47.59682 7.53021 890 ft 4 kts
2026-05-05 12:00 47.59655 7.53021 890 ft 4 kts 355°
2026-05-05 12:00 47.59634 7.53027 890 ft 0 kts 333°
2026-05-05 12:02 47.59636 7.53025 890 ft 2 kts 332°
2026-05-05 12:03 47.59638 7.52976 890 ft 6 kts 251°
2026-05-05 12:03 47.59622 7.52926 890 ft 5 kts 244°
2026-05-05 12:03 47.59606 7.52876 890 ft 7 kts 244°
2026-05-05 12:03 47.59584 7.52825 890 ft 10 kts 218°
2026-05-05 12:04 47.59523 7.52844 890 ft 9 kts 154°
2026-05-05 12:04 47.59461 7.52888 890 ft 11 kts 155°
2026-05-05 12:04 47.59385 7.52942 890 ft 14 kts 154°
2026-05-05 12:04 47.59294 7.53007 890 ft 15 kts 155°
2026-05-05 12:05 47.59206 7.53068 890 ft 12 kts 151°
2026-05-05 12:05 47.59183 7.53174 890 ft 11 kts 93°
2026-05-05 12:05 47.59150 7.53266 890 ft 10 kts 110°
2026-05-05 12:05 47.59159 7.53383 890 ft 14 kts 76°
2026-05-05 12:06 47.59185 7.53546 890 ft 18 kts 77°
2026-05-05 12:06 47.59214 7.53727 890 ft 19 kts 77°
2026-05-05 12:06 47.59242 7.53908 890 ft 14 kts 77°
2026-05-05 12:06 47.59217 7.54021 890 ft 11 kts 122°
2026-05-05 12:07 47.59172 7.54057 890 ft 6 kts 207°
2026-05-05 12:07 47.59158 7.54019 890 ft 0 kts 254°
2026-05-05 12:08 47.59134 7.53879 890 ft 49 kts 256°
2026-05-05 12:08 47.58998 7.52995 889 ft 127 kts 257°
2026-05-05 12:08 47.58765 7.51482 1268 ft 151 kts 257°
2026-05-05 12:08 47.58527 7.49941 2019 ft 157 kts 256°
2026-05-05 12:09 47.58288 7.48289 2355 ft 174 kts 256°
2026-05-05 12:09 47.58016 7.46352 2343 ft 211 kts 256°
2026-05-05 12:09 47.57697 7.44099 2651 ft 236 kts 256°
2026-05-05 12:09 47.57344 7.41603 3144 ft 257 kts 257°
2026-05-05 12:10 47.56843 7.39055 4033 ft 259 kts 241°
2026-05-05 12:10 47.55719 7.37015 5084 ft 256 kts 217°
2026-05-05 12:10 47.54121 7.35888 6106 ft 257 kts 194°
2026-05-05 12:10 47.52314 7.35900 6926 ft 267 kts 169°
2026-05-05 12:11 47.50639 7.37163 7755 ft 278 kts 142°
2026-05-05 12:11 47.49441 7.39466 8579 ft 288 kts 124°
2026-05-05 12:11 47.48453 7.42057 9427 ft 291 kts 123°
2026-05-05 12:11 47.47445 7.44672 10145 ft 298 kts 124°
2026-05-05 12:12 47.46362 7.47440 10364 ft 322 kts 123°
2026-05-05 12:12 47.45213 7.50372 10855 ft 333 kts 123°
2026-05-05 12:12 47.44056 7.53311 11551 ft 338 kts 124°
2026-05-05 12:12 47.42851 7.56375 12286 ft 342 kts 124°
2026-05-05 12:13 47.41645 7.59430 13011 ft 346 kts 124°
2026-05-05 12:13 47.40441 7.62478 13728 ft 350 kts 123°
2026-05-05 12:13 47.39206 7.65595 14371 ft 353 kts 123°
2026-05-05 12:13 47.37962 7.68725 15007 ft 356 kts 123°
2026-05-05 12:14 47.36707 7.71883 15679 ft 358 kts 123°
2026-05-05 12:14 47.35447 7.75062 16350 ft 360 kts 123°
2026-05-05 12:14 47.34175 7.78258 17013 ft 362 kts 123°
2026-05-05 12:14 47.32893 7.81472 17695 ft 364 kts 123°
2026-05-05 12:15 47.31603 7.84704 18322 ft 367 kts 123°
2026-05-05 12:15 47.30307 7.87964 18887 ft 370 kts 123°
2026-05-05 12:15 47.29000 7.91241 19475 ft 373 kts 123°
2026-05-05 12:15 47.27678 7.94553 20091 ft 377 kts 123°
2026-05-05 12:16 47.26341 7.97894 20729 ft 380 kts 123°
2026-05-05 12:16 47.24993 8.01254 21337 ft 383 kts 123°
2026-05-05 12:16 47.23629 8.04643 21907 ft 386 kts 123°
2026-05-05 12:16 47.22254 8.08061 22454 ft 390 kts 123°
2026-05-05 12:17 47.20870 8.11501 22999 ft 393 kts 123°
2026-05-05 12:17 47.19473 8.14969 23531 ft 396 kts 123°
2026-05-05 12:17 47.18065 8.18467 23981 ft 399 kts 123°
2026-05-05 12:17 47.16643 8.21978 24438 ft 401 kts 123°
2026-05-05 12:18 47.15213 8.25503 24902 ft 402 kts 124°
2026-05-05 12:18 47.13779 8.29035 25341 ft 404 kts 124°
2026-05-05 12:18 47.12338 8.32580 25785 ft 405 kts 124°
2026-05-05 12:18 47.10890 8.36139 26231 ft 407 kts 124°
2026-05-05 12:19 47.09438 8.39717 26651 ft 408 kts 124°
2026-05-05 12:19 47.07982 8.43302 27072 ft 410 kts 124°
2026-05-05 12:19 47.06513 8.46902 27462 ft 412 kts 124°
2026-05-05 12:19 47.05031 8.50521 27814 ft 416 kts 124°
2026-05-05 12:20 47.03548 8.54191 28202 ft 420 kts 122°
2026-05-05 12:20 47.02185 8.57993 28610 ft 422 kts 121°
2026-05-05 12:20 47.00825 8.61810 29006 ft 424 kts 122°
2026-05-05 12:20 46.99443 8.65631 29342 ft 425 kts 122°
2026-05-05 12:21 46.98054 8.69466 29632 ft 427 kts 122°
2026-05-05 12:21 46.96653 8.73313 29923 ft 429 kts 122°
2026-05-05 12:21 46.95268 8.77123 30189 ft 431 kts 122°
2026-05-05 12:21 46.93835 8.81046 30436 ft 433 kts 122°
2026-05-05 12:22 46.92407 8.84949 30691 ft 435 kts 122°
2026-05-05 12:22 46.90998 8.88812 30955 ft 438 kts 122°
2026-05-05 12:22 46.89566 8.92745 31286 ft 438 kts 123°
2026-05-05 12:22 46.88129 8.96676 31629 ft 439 kts 123°
2026-05-05 12:23 46.86680 9.00604 31975 ft 439 kts 123°
2026-05-05 12:23 46.85231 9.04530 32292 ft 440 kts 123°
2026-05-05 12:23 46.83787 9.08478 32576 ft 440 kts 123°
2026-05-05 12:23 46.82337 9.12418 32846 ft 441 kts 123°
2026-05-05 12:24 46.80883 9.16368 33154 ft 442 kts 124°
2026-05-05 12:24 46.79415 9.20321 33368 ft 445 kts 124°
2026-05-05 12:24 46.77935 9.24302 33635 ft 447 kts 124°
2026-05-05 12:24 46.76460 9.28285 33916 ft 447 kts 124°
2026-05-05 12:25 46.74985 9.32265 34127 ft 446 kts 124°
2026-05-05 12:25 46.73504 9.36251 34362 ft 447 kts 124°
2026-05-05 12:25 46.72016 9.40232 34589 ft 447 kts 124°
2026-05-05 12:25 46.70532 9.44219 34779 ft 449 kts 124°
2026-05-05 12:26 46.69053 9.48200 34914 ft 445 kts 124°
2026-05-05 12:26 46.67571 9.52148 34960 ft 444 kts 124°
2026-05-05 12:26 46.64633 9.59957 34984 ft 441 kts 124°
2026-05-05 12:27 46.61693 9.67780 34993 ft 440 kts 124°
2026-05-05 12:27 46.58752 9.75586 34986 ft 440 kts 124°
2026-05-05 12:28 46.55791 9.83387 35002 ft 441 kts 124°
2026-05-05 12:28 46.52830 9.91191 34980 ft 442 kts 124°
2026-05-05 12:29 46.49852 9.99028 34977 ft 444 kts 124°
2026-05-05 12:29 46.46281 10.06161 34975 ft 432 kts 143°
2026-05-05 12:30 46.41713 10.11703 34955 ft 429 kts 146°
2026-05-05 12:30 46.37100 10.17206 34960 ft 430 kts 146°
2026-05-05 12:31 46.32471 10.22721 34973 ft 432 kts 146°
2026-05-05 12:31 46.27845 10.28253 34979 ft 432 kts 146°
2026-05-05 12:32 46.23209 10.33781 34989 ft 432 kts 146°
2026-05-05 12:32 46.18560 10.39277 34990 ft 432 kts 147°
2026-05-05 12:33 46.13513 10.43689 34973 ft 419 kts 165°
2026-05-05 12:33 46.07951 10.45989 34985 ft 416 kts 171°
2026-05-05 12:34 46.02352 10.48143 34989 ft 417 kts 170°
2026-05-05 12:34 45.96748 10.50333 34989 ft 417 kts 170°
2026-05-05 12:35 45.91153 10.52530 34992 ft 417 kts 170°
2026-05-05 12:35 45.85556 10.54709 34980 ft 416 kts 170°
2026-05-05 12:36 45.79967 10.56883 34987 ft 417 kts 171°
2026-05-05 12:36 45.74372 10.59057 34988 ft 416 kts 171°
2026-05-05 12:37 45.68772 10.61211 34989 ft 417 kts 171°
2026-05-05 12:37 45.63214 10.63403 34971 ft 419 kts 168°
2026-05-05 12:38 45.57655 10.65956 34975 ft 420 kts 168°
2026-05-05 12:38 45.52083 10.68472 34982 ft 420 kts 168°
2026-05-05 12:39 45.46464 10.70995 35235 ft 425 kts 168°
2026-05-05 12:39 45.43639 10.72260 35490 ft 425 kts 168°
2026-05-05 12:39 45.40813 10.73514 35745 ft 425 kts 168°
2026-05-05 12:40 45.37991 10.74773 35996 ft 425 kts 168°
2026-05-05 12:40 45.35166 10.76040 36234 ft 425 kts 168°
2026-05-05 12:40 45.32342 10.77298 36459 ft 425 kts 168°
2026-05-05 12:40 45.29521 10.78551 36689 ft 425 kts 168°
2026-05-05 12:41 45.26696 10.79801 36888 ft 425 kts 168°
2026-05-05 12:41 45.23864 10.81054 36978 ft 426 kts 168°
2026-05-05 12:41 45.18215 10.83572 36986 ft 425 kts 168°
2026-05-05 12:42 45.12548 10.86077 37001 ft 428 kts 168°
2026-05-05 12:42 45.06863 10.88584 37001 ft 428 kts 168°
2026-05-05 12:43 45.01188 10.91094 36999 ft 427 kts 168°
2026-05-05 12:43 44.95525 10.93583 36995 ft 426 kts 168°
2026-05-05 12:44 44.89861 10.96056 36988 ft 426 kts 168°
2026-05-05 12:44 44.84199 10.98536 36983 ft 426 kts 168°
2026-05-05 12:45 44.78542 11.01021 36987 ft 426 kts 168°
2026-05-05 12:45 44.72889 11.03487 36990 ft 425 kts 168°
2026-05-05 12:46 44.67234 11.05938 36989 ft 425 kts 168°
2026-05-05 12:46 44.61581 11.08378 36996 ft 425 kts 168°
2026-05-05 12:47 44.55949 11.10849 37002 ft 424 kts 168°
2026-05-05 12:47 44.50318 11.13266 37005 ft 423 kts 168°
2026-05-05 12:48 44.44699 11.15702 36990 ft 422 kts 168°
2026-05-05 12:48 44.39084 11.18118 36996 ft 422 kts 168°
2026-05-05 12:49 44.33477 11.20532 36997 ft 421 kts 168°
2026-05-05 12:49 44.27856 11.22807 37003 ft 419 kts 171°
2026-05-05 12:50 44.22209 11.24845 36996 ft 419 kts 171°
2026-05-05 12:50 44.16566 11.26902 36995 ft 418 kts 171°
2026-05-05 12:51 44.10930 11.28945 36986 ft 419 kts 171°
2026-05-05 12:51 44.05278 11.31009 36938 ft 421 kts 171°
2026-05-05 12:52 44.00561 11.32725 36966 ft 422 kts 171°
2026-05-05 12:52 43.94872 11.34791 36973 ft 423 kts 171°
2026-05-05 12:53 43.89183 11.36857 36976 ft 423 kts 171°
2026-05-05 12:53 43.83494 11.38913 36956 ft 423 kts 171°
2026-05-05 12:54 43.74943 11.41996 36970 ft 424 kts 171°
2026-05-05 12:55 43.69233 11.44043 36981 ft 424 kts 171°
2026-05-05 12:55 43.63517 11.46082 36973 ft 424 kts 171°
2026-05-05 12:56 43.57804 11.48137 36981 ft 425 kts 171°
2026-05-05 12:56 43.52079 11.50185 36989 ft 425 kts 171°
2026-05-05 12:57 43.46354 11.52232 36999 ft 425 kts 171°
2026-05-05 12:57 43.40630 11.54270 36991 ft 425 kts 172°
2026-05-05 12:58 43.34897 11.56295 36995 ft 425 kts 171°
2026-05-05 12:58 43.29166 11.58322 36996 ft 426 kts 172°
2026-05-05 12:59 43.23429 11.60362 36993 ft 426 kts 172°
2026-05-05 12:59 43.17652 11.61827 36995 ft 422 kts 177°
2026-05-05 13:00 43.08943 11.63722 36998 ft 423 kts 177°
2026-05-05 13:01 42.97321 11.66243 36996 ft 423 kts 178°
2026-05-05 13:01 42.91497 11.67499 36998 ft 424 kts 178°
2026-05-05 13:02 42.85668 11.68751 36988 ft 425 kts 178°
2026-05-05 13:02 42.79815 11.70011 36994 ft 426 kts 178°
2026-05-05 13:03 42.73952 11.71285 37005 ft 427 kts 178°
2026-05-05 13:03 42.68084 11.72539 37012 ft 427 kts 178°
2026-05-05 13:04 42.62207 11.73798 37016 ft 428 kts 178°
2026-05-05 13:04 42.56327 11.75057 37033 ft 428 kts 178°
2026-05-05 13:05 42.50446 11.76310 37045 ft 428 kts 178°
2026-05-05 13:05 42.44564 11.77572 37050 ft 428 kts 178°
2026-05-05 13:06 42.38676 11.78828 37046 ft 428 kts 179°
2026-05-05 13:06 42.32787 11.80070 37057 ft 429 kts 179°
2026-05-05 13:07 42.26896 11.81329 37056 ft 428 kts 179°
2026-05-05 13:07 42.21003 11.82562 37049 ft 429 kts 179°
2026-05-05 13:08 42.15111 11.83810 37046 ft 428 kts 179°
2026-05-05 13:08 42.09262 11.85039 37052 ft 429 kts 178°
2026-05-05 13:09 42.03373 11.86282 37056 ft 429 kts 179°
2026-05-05 13:09 41.97451 11.87524 37048 ft 428 kts 179°
2026-05-05 13:10 41.91594 11.88743 37057 ft 429 kts 179°
2026-05-05 13:10 41.85885 11.89939 37062 ft 429 kts 179°
2026-05-05 13:11 41.80266 11.91121 37061 ft 429 kts 179°
2026-05-05 13:11 41.74531 11.92313 37038 ft 429 kts 179°
2026-05-05 13:12 41.68787 11.93500 37039 ft 429 kts 179°
2026-05-05 13:12 41.62980 11.94711 37039 ft 429 kts 179°
2026-05-05 13:13 41.57077 11.95936 37023 ft 429 kts 179°
2026-05-05 13:13 41.51194 11.97153 37028 ft 429 kts 178°
2026-05-05 13:14 41.45285 11.98378 37032 ft 430 kts 178°
2026-05-05 13:14 41.39371 11.99586 37039 ft 430 kts 178°
2026-05-05 13:15 41.33460 12.00796 37015 ft 430 kts 178°
2026-05-05 13:15 41.27601 12.01536 37028 ft 420 kts 190°
2026-05-05 13:16 41.21799 12.01003 37041 ft 419 kts 191°
2026-05-05 13:16 41.15990 12.00479 37046 ft 419 kts 191°
2026-05-05 13:17 41.10175 11.99955 37031 ft 419 kts 191°
2026-05-05 13:17 41.04364 11.99420 37042 ft 419 kts 191°
2026-05-05 13:18 40.98545 11.98910 37042 ft 419 kts 191°
2026-05-05 13:18 40.92730 11.98381 37027 ft 419 kts 191°
2026-05-05 13:19 40.86977 11.97883 37034 ft 419 kts 191°
2026-05-05 13:19 40.81156 11.97357 37039 ft 419 kts 191°
2026-05-05 13:20 40.75336 11.96841 37042 ft 419 kts 191°
2026-05-05 13:20 40.69556 11.96339 37027 ft 420 kts 190°
2026-05-05 13:21 40.63777 11.95810 37037 ft 420 kts 190°
2026-05-05 13:21 40.57992 11.95306 37042 ft 420 kts 190°
2026-05-05 13:22 40.52172 11.94789 37041 ft 420 kts 191°
2026-05-05 13:22 40.46340 11.94271 37029 ft 420 kts 190°
2026-05-05 13:23 40.40502 11.93762 37036 ft 421 kts 190°
2026-05-05 13:23 40.34661 11.93244 37040 ft 421 kts 190°
2026-05-05 13:24 40.28817 11.92747 37027 ft 421 kts 190°
2026-05-05 13:24 40.22973 11.92234 37034 ft 421 kts 190°
2026-05-05 13:25 40.17126 11.91727 37040 ft 421 kts 190°
2026-05-05 13:25 40.11275 11.91219 37044 ft 421 kts 190°
2026-05-05 13:26 40.05422 11.90713 37047 ft 421 kts 190°
2026-05-05 13:26 39.99570 11.90209 37049 ft 422 kts 190°
2026-05-05 13:27 39.93731 11.89696 36731 ft 419 kts 190°
2026-05-05 13:27 39.90826 11.89450 36469 ft 419 kts 188°
2026-05-05 13:27 39.87888 11.89556 36206 ft 426 kts 179°
2026-05-05 13:28 39.84955 11.90343 35930 ft 436 kts 168°
2026-05-05 13:28 39.82117 11.91779 35614 ft 438 kts 162°
2026-05-05 13:28 39.79338 11.93387 35051 ft 436 kts 162°
2026-05-05 13:28 39.76573 11.94966 34570 ft 433 kts 162°
2026-05-05 13:29 39.73821 11.96518 34068 ft 430 kts 162°
2026-05-05 13:29 39.71082 11.98056 33527 ft 427 kts 162°
2026-05-05 13:29 39.68365 11.99583 33049 ft 423 kts 163°
2026-05-05 13:29 39.65675 12.01087 32561 ft 419 kts 163°
2026-05-05 13:30 39.63008 12.02584 32081 ft 416 kts 163°
2026-05-05 13:30 39.60359 12.04076 31604 ft 413 kts 163°
2026-05-05 13:30 39.57736 12.05558 31144 ft 410 kts 163°
2026-05-05 13:30 39.55126 12.07014 30678 ft 407 kts 163°
2026-05-05 13:31 39.52565 12.08439 30225 ft 405 kts 163°
2026-05-05 13:31 39.49982 12.09869 29704 ft 403 kts 163°
2026-05-05 13:31 39.47420 12.11303 29280 ft 399 kts 163°
2026-05-05 13:31 39.44885 12.12717 28834 ft 396 kts 163°
2026-05-05 13:32 39.42365 12.14123 28398 ft 392 kts 163°
2026-05-05 13:32 39.39863 12.15515 27960 ft 390 kts 163°
2026-05-05 13:32 39.37380 12.16897 27498 ft 388 kts 162°
2026-05-05 13:32 39.34911 12.18267 27073 ft 386 kts 162°
2026-05-05 13:33 39.32449 12.19632 26629 ft 384 kts 162°
2026-05-05 13:33 39.30001 12.20998 26177 ft 383 kts 162°
2026-05-05 13:33 39.27558 12.22350 25717 ft 381 kts 162°
2026-05-05 13:33 39.25124 12.23697 25253 ft 380 kts 162°
2026-05-05 13:34 39.22696 12.25048 24782 ft 380 kts 162°
2026-05-05 13:34 39.20272 12.26398 24318 ft 379 kts 162°
2026-05-05 13:34 39.17848 12.27737 23846 ft 379 kts 162°
2026-05-05 13:34 39.15416 12.29070 23323 ft 380 kts 162°
2026-05-05 13:35 39.12991 12.30406 22844 ft 378 kts 161°
2026-05-05 13:35 39.10581 12.31744 22389 ft 376 kts 161°
2026-05-05 13:35 39.08183 12.33065 21932 ft 374 kts 161°
2026-05-05 13:35 39.05796 12.34377 21475 ft 372 kts 161°
2026-05-05 13:36 39.03421 12.35685 21022 ft 370 kts 161°
2026-05-05 13:36 39.01058 12.36979 20573 ft 368 kts 161°
2026-05-05 13:36 38.98706 12.38272 20134 ft 367 kts 161°
2026-05-05 13:36 38.96364 12.39553 19700 ft 365 kts 161°
2026-05-05 13:37 38.94028 12.40834 19253 ft 364 kts 161°
2026-05-05 13:37 38.91705 12.42114 18826 ft 363 kts 161°
2026-05-05 13:37 38.89421 12.43365 18423 ft 361 kts 162°
2026-05-05 13:37 38.87137 12.44683 17980 ft 361 kts 156°
2026-05-05 13:38 38.85028 12.46441 17552 ft 359 kts 149°
2026-05-05 13:38 38.83041 12.48277 17114 ft 346 kts 149°
2026-05-05 13:38 38.81107 12.50057 16738 ft 340 kts 149°
2026-05-05 13:38 38.79186 12.51827 16341 ft 339 kts 149°
2026-05-05 13:39 38.77273 12.53575 15952 ft 337 kts 149°
2026-05-05 13:39 38.75363 12.55318 15571 ft 336 kts 149°
2026-05-05 13:39 38.73464 12.57049 15192 ft 335 kts 150°
2026-05-05 13:39 38.71568 12.58771 14810 ft 334 kts 150°
2026-05-05 13:40 38.69679 12.60491 14428 ft 332 kts 149°
2026-05-05 13:40 38.68434 12.61631 14181 ft 332 kts 150°
2026-05-05 13:40 38.66562 12.63339 13777 ft 331 kts 150°
2026-05-05 13:40 38.64696 12.65042 13343 ft 325 kts 149°
2026-05-05 13:41 38.62890 12.66685 12976 ft 313 kts 149°
2026-05-05 13:41 38.61133 12.68284 12601 ft 309 kts 149°
2026-05-05 13:41 38.59387 12.69870 12224 ft 307 kts 149°
2026-05-05 13:41 38.57082 12.71959 11722 ft 306 kts 149°
2026-05-05 13:42 38.55908 12.73022 11456 ft 306 kts 149°
2026-05-05 13:42 38.54174 12.74591 11081 ft 305 kts 149°
2026-05-05 13:42 38.52442 12.76161 10692 ft 306 kts 149°
2026-05-05 13:42 38.50704 12.77737 10303 ft 306 kts 149°
2026-05-05 13:43 38.48970 12.79312 9926 ft 305 kts 148°
2026-05-05 13:43 38.47267 12.80861 9771 ft 296 kts 148°
2026-05-05 13:43 38.45615 12.82360 9532 ft 288 kts 148°
2026-05-05 13:43 38.43988 12.83833 9159 ft 286 kts 148°
2026-05-05 13:44 38.42372 12.85294 8764 ft 284 kts 148°
2026-05-05 13:44 38.40783 12.86724 8355 ft 283 kts 148°
2026-05-05 13:44 38.39160 12.88184 7970 ft 280 kts 147°
2026-05-05 13:44 38.37575 12.89617 7576 ft 279 kts 147°
2026-05-05 13:45 38.35998 12.90979 7175 ft 277 kts 149°
2026-05-05 13:45 38.34392 12.92319 6770 ft 275 kts 148°
2026-05-05 13:45 38.32798 12.93662 6410 ft 272 kts 148°
2026-05-05 13:45 38.31243 12.94940 6219 ft 261 kts 155°
2026-05-05 13:46 38.29546 12.95377 5940 ft 244 kts 189°
2026-05-05 13:46 38.28003 12.94661 5672 ft 234 kts 213°
2026-05-05 13:46 38.26764 12.93346 5403 ft 230 kts 220°
2026-05-05 13:46 38.25506 12.92137 5124 ft 223 kts 213°
2026-05-05 13:47 38.24187 12.91142 4801 ft 218 kts 207°
2026-05-05 13:47 38.22830 12.90343 4445 ft 212 kts 201°
2026-05-05 13:47 38.21452 12.89736 4098 ft 207 kts 195°
2026-05-05 13:47 38.20085 12.89322 3839 ft 196 kts 190°
2026-05-05 13:48 38.18771 12.89076 3571 ft 188 kts 186°
2026-05-05 13:48 38.17471 12.88973 3317 ft 188 kts 181°
2026-05-05 13:48 38.16159 12.89015 3068 ft 189 kts 176°
2026-05-05 13:48 38.14858 12.89223 2811 ft 189 kts 165°
2026-05-05 13:49 38.13802 12.90140 2555 ft 187 kts 123°
2026-05-05 13:49 38.13318 12.91617 2435 ft 176 kts 108°
2026-05-05 13:49 38.12954 12.93034 2398 ft 163 kts 108°
2026-05-05 13:49 38.12773 12.94430 2260 ft 162 kts 78°
2026-05-05 13:50 38.13175 12.95738 2057 ft 158 kts 64°
2026-05-05 13:50 38.13638 12.96991 1845 ft 156 kts 67°
2026-05-05 13:50 38.14041 12.98247 1646 ft 149 kts 68°
2026-05-05 13:50 38.14423 12.99449 1451 ft 145 kts 68°
2026-05-05 13:51 38.14796 13.00621 1289 ft 142 kts 67°
2026-05-05 13:51 38.15164 13.01774 1123 ft 139 kts 66°
2026-05-05 13:51 38.15509 13.02914 961 ft 138 kts 68°
2026-05-05 13:51 38.15870 13.04034 826 ft 137 kts 66°
2026-05-05 13:52 38.16248 13.05137 709 ft 135 kts 66°
2026-05-05 13:52 38.16621 13.06216 572 ft 133 kts 67°
2026-05-05 13:52 38.16963 13.07282 374 ft 131 kts 66°
2026-05-05 13:52 38.17325 13.08338 174 ft 129 kts 65°
2026-05-05 13:53 38.17672 13.09365 53 ft 118 kts 66°
2026-05-05 13:53 38.17938 13.10159 51 ft 73 kts 67°
2026-05-05 13:53 38.18081 13.10586 51 ft 33 kts 67°
2026-05-05 13:53 38.18139 13.10730 53 ft 10 kts 23°
2026-05-05 13:54 38.18175 13.10664 53 ft 10 kts 275°
2026-05-05 13:54 38.18181 13.10577 53 ft 10 kts 276°
2026-05-05 13:54 38.18190 13.10493 53 ft 9 kts 278°
2026-05-05 13:54 38.18202 13.10412 53 ft 9 kts 293°
2026-05-05 13:55 38.18250 13.10366 53 ft 8 kts 336°
2026-05-05 13:55 38.18302 13.10393 52 ft 10 kts 58°
2026-05-05 13:55 38.18346 13.10479 53 ft 11 kts 36°
2026-05-05 13:55 38.18418 13.10516 53 ft 10 kts 24°
2026-05-05 13:56 38.18464 13.10593 53 ft 11 kts 65°
2026-05-05 13:56 38.18491 13.10674 53 ft 8 kts 67°
2026-05-05 13:56 38.18531 13.10686 53 ft 6 kts 337°
2026-05-05 13:56 38.18563 13.10669 53 ft 4 kts 337°
2026-05-05 13:57 38.18570 13.10665 53 ft 0 kts 337°